User: anonymous   Login
Location: Vancouver
(49.2500°N, 123.1330°W)
Time: 01:26:29
(UTC-07:00)
Language:

Cosmos 676 Rocket - Orbit

View from above orbital plane
View from above orbital plane
View from above satellite
View from above satellite

Ground track
Ground track

The orbit data is extracted from the following two-line orbital elements,

1 07434U 74071B   16147.53186379  .00000081  00000-0  36330-4 0  9996
2 07434  74.0467 204.0657 0021313 213.1876 146.7942 14.36572701181188
Epoch (UTC): 26 May 2016 12:45:53
Eccentricity: 0.0021313
inclination: 74.0467°
perigee height: 754 km
apogee height: 785 km
right ascension of ascending node: 204.0657°
argument of perigee: 213.1876°
revolutions per day: 14.36572701
mean anomaly at epoch: 146.7942°
orbit number at epoch: 18118

The dashed part of the orbit path shows where the satellite is in the earth's shadow,  

DLR